[Date Prev][Date Next][Thread Prev][Thread Next][Date Index][Thread Index]

[jamsat-news:1621] jas2info #251



========================   ºÇ¿·¾ðÊó   ==============================

        Last updated ¡§17Nov2001 ¡¡13¡§00(JST)   #251

==================================================================
   
  £±¡Ë¥¢¥Þ¥Á¥å¥¢ÄÌ¿®±ÒÀ±¾ðÊ󡢣ƣϥ·¥ê¡¼¥º¤Îµ°Æ»Í×ÁÇ¡¢¥Æ¥ì¥á¥È¥ê¡¢£Ñ£Ó£Ï¤Î
¡¡¡¡¡¡¾õ¶·Åù¤ò¤Þ¤È¤á¤Æ¤ß¤Þ¤·¤¿¡¥
¡¡¡¡¡¡
¡¡¡¡¡¡£Æ£Ï¡Ý£²£¹¤Î£²£°£°£±Ç¯£±£±·î£±£·Æü¡ÊÅڡˤΣ¹¡§£±£°¡Ê£Ê£Ó£Ô¡Ë¤Î¥Ñ¥¹¤Ç¤Ï
¡¡¡¡JARL¤Î¥Û¡¼¥à¥Ú¡¼¥¸¤Î¤È¤¦¤ê¥¢¥Ê¥í¥°±¿ÍѤǤ·¤¿¡£¡¡º£Æü¤Þ¤Ç¤Î´Ñ¬¤·¤¿
¡¡¡¡¥Æ¥ì¥á¥È¥ê¡¼¤ÈºÇ½ª¤ÎʬÀÏ·ë²Ì¤òÊó¹ð¤·¤Æ¤ª¤­¤Þ¤¹¡£

AS25931C   17Nov2001
09:10-09:18(JST)
FREQ.  435.797-.789MHz

HI HI AE C7 88 55 00 D4 93 43 09 62 59 83 7F 63 9D 99 B0 51 93 90 91 91 91 
HI HI AE C7 88 55 00 D4 93 43 09 62 57 85 7A 63 9D 99 B0 50 93 8F 90 91 91 
HI HI AE C7 88 55 00 D4 93 43 09 62 55 92 79 63 9D 99 B0 7E 93 8F 90 91 91 
HI HI AE C7 88 55 00 D4 93 43 09 62 53 9D 78 64 9E 99 B0 75 93 8F 90 91 91 
HI HI AE C7 88 55 00 D4 93 43 09 62 51       64 9E 99 B0 72 92 8F 90 91 91 
HI HI AE C7 88 55 00 D4 93 43 09 62 50 A7 75 64 9E 99 B0 70 92 8F 90 91 91 
HI HI AE C7 88 55 00 D4 93 43 09 62 4F B2 73 63 9E 99 B0 6D 92 8F 90 91 91 
HI HI AE C7 88 55 00 D4 93 43 09 62 4D B5 6F 63 9E 99 B0 7C 92 8F 90 91 91 
HI HI AE C7 88 55 00 D4 93 43 09 62 4B B4 6B 64 9E 99 B0 64 92 8F 90 91 91 
   
AS25909C  15Nov2001
18:42-18:55(JST)
FREQ.  435.799-.787MHz

HI HI AE 07 88 55 00 D4 82 61 09 48 66 66 00 88 88 87 93 78 97 90 91 97 93 
HI HI AE 07 88 55 00 D4 82 61 09 48 5F 62 00 88 88 87 93 6F 97 90 91 98 93 
HI HI AE 07 88 55 00 D4 82 61 09 48 58 5F 00 87 88 87 92 8C 98 90 92 98 93 
HI HI AE 07 88 55 00 D4 82 61 09 48 51 5E 05 83 88 87 92 87 98 90 92 98 93 
HI HI AE 07 88 55 00 D4 82 61 09 48 4C 5F 35 6B 8A 88 95 72 98 91 92 98 93 
HI HI AE 07 88 55 00 D4 82 61 09 48 47 61 6F 4F 8E 8B 98 7A 98 91 93 98 93 
HI HI AE 07 88 55 00 D4 82 61 09 48 43 62 6E 50 8E 8D 9A 93 98 91 93 99 93 
HI HI AE 07 88 55 00 D4 82 61 09 48 41 64 6E 51 91 8E 9B 6C 98 92 93 99 93 
HI HI AE 07 88 55 00 D4 82 61 09 48 3F 67 6C 51 92 8F 9D 97 99 92 93 99 93
HI HI AE 07 88 55 00 D4 82 61 09 48 3F 6A 6B 53 92 90 9D 77 99 92 94 99 93 
HI HI AE C7 88 55 00 D4 82 61 09 48 41 6C 6B 5F 91 8F B0 90 99 92 94 99 93 
HI HI AE C7 88 55 00 D4 82 61 09 48 42 6F 6B 5F 91 8F B0 70 99 92 94 99 93 
HI HI AE C7 88 55 00 D4 82 61 09 48 46 72 6C 5F 91 8F B0 85 99 92 94 99 93 
HI HI AE C7 88 55 00 D4 82 61 09 48 4B 75 6D 5F 91 8F B0 79 99 92 94 99 93 
HI HI AE C7 88 55 00 D4 82 61 09 48 50 77 6E 5F 91 8F B0 5E 99 93 94 9A 93 
HI HI AE C7 88 55 00 D4 82 61 09 48 56 79 6D 5F 91 8F B0 7E 99 93 94 9A 93 
HI HI AE C7 88 55 00 D4 82 61 09 48 5C 7A 6E 5F 91 8F B0 72 8A 83 95 9A 93 
HI HI AE C7 88 55 00 D4 82 61 09 48   

AS25896C1   14Nov2001
19:35-19:51(JST)
FREQ. 435.801-.786MHz

HI HI AE 07 88 55 00 D4 00 00 09 00 A3 76 00 89 89 88 94 77 8F 92 92 8D 8F 
HI HI AE 07 88 55 00 D4 00 00 09 00 A0 81 00 88 89 88 94 7A 8F 92 92 8E 8F 
HI HI AE 07 88 55 00 D4 00 00 09 00 9B 8C 00 8A 89 88 93 9B 90 92 92 8E 8F 
HI HI AE 07 88 55 00 D4 00 00 09 00 93 96 00 89 88 87 93 7A 90 92 93 8E 8F 
HI HI AE 07 88 55 00 D4 00 63 09 00 89 9E 00 89 88 87 93 76 90 93 93 8E 8F 
HI HI AE 07 88 55 00 D4 00 00 09 00 77 88          87 93 70 90 94 93 8E 8F 
HI HI AE 07 88 55 00 D4 00 00 09 00 5A A1          8C 99 76 91 94 93 8F 8F 
HI HI AE 07 88 55 00 D4 00 00 09 00 3F             8E B0 7B 92 94 94 90 8F 
HI HI AE C7 88 55 00 D4 00 00 09 00 3F 74 74 5F 90 8E B0 95 92 94 94 90 8F 
HI HI AE C7 88 55 00 D4 00 00 09 00 3F 6A 71 5F 91 8E B0 63 92 95 95 90 8F 
HI HI AE C7 88 55 00 D4 00 00 09 00 3F 63 6E 5F 91 8F B0 69 92 95 95 90 8F 
HI HI AE C7 88 55 00 D4 00 00 09 00 41 5E 6B 5F 91 8F B0 6F 92 95 95 90 8F 
HI HI AE C7 88 55 00 D4 00 00 09 00 42 5B 65 5F 91 8F B0 88 92 95 95 90 8F 
HI HI AE C7 88 55 00 D4 00 00 09 00 44 5B 62 5F 91 8F B0 6F 92 95 95 90 8F 
HI HI AE C7 88 55 00 D4 00 00 09 00 45 5D 5F 5F 91 8F B0 6F 93 95 95 91 8F 
HI HI AE C7 88 55 00 D4 00 00 09 00 44 5F 5A 5F 91 8F B0 6F 93 95 95 91 8F
 
AS25895C  14Nov2001
17:57-18:02(JST)
FREQ. 435.792-.790MHz

HI HI AE 07 88 55 00 D4 00 00 09 00          56 8F 8D 9A 70 92 91 8F 8F 8D 
HI HI AE 07 88 55 00 D4 00 00 09 00 40 6E 61 55 91 8E 9B 5A 92 91 8F 8F 8D 
HI HI AE 07 88 55 00 D4 00 00 09 01 41 65 65 55 91 8F 9C 5D 92 91 8F 90 8E 
HI HI AE 07 88 55 00 D4 00 00 09 00 43 5C 67 5F 91 8E B0 8A 93 91 90 90 8E 
HI HI AE C7 88 55 00 D4 00 00 09 00 48 55 6D 5F 91 8E B0 6D 93 91 90 90 8E 
HI HI AE C7 88 55 00 D4 00 00 09 00 4C 4F 72 5F 91 8F B0 79 93 91 90 90 8E 
HI HI AE C7 88 55 00 D4 00 00 09 00 51 4A 75 5F 91 8F B0 7F 93 91 90 90 8E 
 
AS25882C1     13Nov2001
18:49-19:00(JST)
FREQ. 435.795-.787MHz

HI HI AE 07 88 55 00 D4 5E D1 09 27 71 7E 6F 8E 89 87 93 77 92 8E 93 95 8F 
HI HI AE 07 88 55 00 D4 5E D1 09 27 6C 7C 27 7  89 86 94 7B 93 8F 93 95 8F 
HI HI AE 07 Z8 55 00 D4 5E D1 09 27 67 80 6F 5F 89 8B 98 71 93 8F 94 95 8F 
HI HI AE 07 88 55 00 D4 5E D1 09 27 63 81 6E 55 80 8D 9I I9 93 8U 94 95 8F 
HI HI AE 07 88 55 00 D4 5E D1 09 27 5E 82 6E 53 90 8E 9B 71 93 8F 94 95 8F 
HI HI AE 07 88 55 00 D4 5E D1 09 27 5A 83 71 4F 92 8F 9D 58 93 90 94 95 90 
HI HI AE 07 88 55 00 D4 5E D1 09 27 56 81 73 5F 91 8E B0 6F 93 90 94 95 8F 
HI HI AE C7 88 55 00 D4 5E D1 09 27 52 81 72 5F 90 8E B0 77 94 90 94 96 8F 
HI HI AE C7 88 55 00 D4 5E D1 09 27          5F 90 8E B0 8D 94 90 94 96 90 
HI HI AE C7 88 55 00 D4 5E D1 09 27          5F 91 8F B0 76 94 90 94 96 90 
HI HI AE C7 88 55 00 D4 5E D1 09 27 49 7D 68 5F 91 8F B0 76 94 90 94 96 90 
HI HI AE C7 88 55 00 D4 5E D1 09 27 47 7B 61 5F 90 8F B0 8C 94 90 94 96 8F 
HI HI AE C7 88 55 00 D4 5E D1 09 27 44 78 56 5F 91 8F AF B1 95 91 94 96 8F 
HI HI AE C7 88 55 00 D4 5E D1 09 27 42 76 54 5F 91 8F AF 88 95 91 94 96 90 
HI HI AE C7 88 55 00 D4 5E D1 09 27 41 74 53 60 91 8F AE 76 95 91 94 96 90  
 
------------------------¡¡£Æ£Ï-£²£¹¤Îµ°Æ»Í×ÁÇ¡¡------------------------------        
 
¡¡¡¡¢£ µ°Æ»Í×ÁÇ£±¡§¡Öjamsat¡Ýkeps¡§£±£°£µ£±¡×¤è¤ê         
¡¡¡¡¡¡¡¡¡¡¡¡¡¡¡¡¡¡¡¡SB KEPS @ AMSAT  $ORB01319.N
¡¡¡¡¡¡¡¡¡¡¡¡¡¡¡¡¡¡¡¡2Line Orbital Elements 01319.AMSAT

HR AMSAT ORBITAL ELEMENTS FOR AMATEUR SATELLITES IN NASA FORMAT
FROM WA5QGD FORT WORTH,TX November 15, 2001
SEND SUBSCRIBE/UNSUBSCRIBE TO majordomo@amsat.org ONLY
BID: ORB01319.N

¡¡DECODE 2-LINE ELSETS WITH THE FOLLOWING KEY:
¡¡1 AAAAAU 00  0  0 BBBBB.BBBBBBBB  .CCCCCCCC  00000-0  00000-0 0  DDDZ
¡¡2 AAAAA EEE.EEEE FFF.FFFF GGGGGGG HHH.HHHH III.IIII JJ.JJJJJJJJKKKKKZ
¡¡KEY: A-CATALOGNUM B-EPOCHTIME C-DECAY D-ELSETNUM E-INCLINATION F-RAAN
¡¡G-ECCENTRICITY H-ARGPERIGEE I-MNANOM J-MNMOTION K-ORBITNUM Z-CHECKSUM

FO-29
1 24278U 96046B   01318.63632065  .00000158  00000-0  19893-3 0 04646
2 24278 098.5219 163.2856 0350416 331.9338 026.3295 13.52795488258980

 ¢£ µ°Æ»Í×ÁÇ£²¡§¡Öjamsat¡Ýkeps¡§£±£°£µ£²¡×¤è¤ê
¡¡¡¡¡¡¡¡¡¡¡¡¡¡¡¡SB KEPS @ AMSAT  $ORB01319.O
¡¡¡¡¡¡¡¡¡¡¡¡¡¡¡¡Orbital Elements  01319.OSCAR

HR AMSAT ORBITAL ELEMENTS FOR OSCAR SATELLITES
FROM WA5QGD FORT WORTH,TX November 15, 2001
SEND SUBSCRIBE/UNSUBSCRIBE TO majordomo@amsat.org ONLY
BID: ORB01319.O
TO ALL RADIO AMATEURS BT

Satellite: FO-29
Catalog number: 24278
Epoch time:      01318.63632065
Element set:    0464
Inclination:      098.5219 deg
RA of node:       163.2856 deg
Eccentricity:    0.0350416
Arg of perigee:   331.9338 deg
Mean anomaly:     026.3295 deg
Mean motion:   13.52795488 rev/day
Decay rate:       1.58e-06 rev/day^2
Epoch rev:           25898
Checksum:              341

-------------------¡¡¡¡FO-29¡ÊJAS-2)¤Î¥Æ¥ì¥á¥È¥ê¤Ë´Ø¤¹¤ë¾ðÊó¡¡¡¡----------------------¡¡
¡¡
£²¡Ë¾åµ­£±£±·î£±£·Æü¡ÊÅڡˤΥƥì¥á¥È¥ê¤ÎºÇ½ª¹Ô¤òʬÀϤ·¤Æ¤ª¤­¤Þ¤¹.

AS25931C   17Nov2001
09:10-09:18(JST)
FREQ.  435.797-.789MHz

HI HI AE C7 88 55 00 D4 93 43 09 62 4B B4 6B 64 9E 99 B0 64 92 8F 90 91 91 

¥Æ¥ì¥á¥È¥ê¡¡  Æâ¡¡ÍÆ¡¡ ¡¡      ´¹»»»»ÃÍ¡¡Ã± °Ì
£³£Ã	¼§µ¤¥»¥ó¥µ¡¼£Ú¼´=	36764.7	[nT]
£³£Ä	¼§µ¤¥»¥ó¥µ£Ø¼´	=	88235.3	[nT]
£´£Á	ÂÀÍÛÅÅÃÓȯÀ¸ÅÅή=	 1049.0	[mA]
£´£Â	£Â½¼ÊüÅÅÅÅή	=	  -40.0	[mA]
£´£Ã	£Âü»ÒÅÅ°µ	=	   17.0	[V]
£´£Ä	£ÂÃæ´Öü»ÒÅÅ°µ	=	    7.4	[V]
£µ£Á	¥Ð¥¹ÅÅ°µ	=	   17.3	[V]
£µ£Â	£Ê£Ô£ÁÁ÷¿®ÅÅÎÏ	=	  551.9	[mW]
£µ£Ã 	¹½Âβ¹ÅÙ£±	=	   25.2	[¡î]
£µ£Ä	¹½Âβ¹ÅÙ£²	=	   26.3	[¡î]
£¶£Á	¹½Âβ¹ÅÙ£³	=	   26.0	[¡î]
£¶£Â	¹½Âβ¹ÅÙ£´	=	   25.6	[¡î]
£¶£Ã	£Â¥»¥ë²¹ÅÙ	=	   25.6	[¡î]

 ==========================¡¡FO-29¡Ê¤Õ¤¸£³¹æ¡Ë¤ÎQSO¾ðÊóÅù¡¡======================
   
¡¡£³)[jamsat-bb:

 ===============================================================================
¡¡¡¡¡¡£´¡Ë£Ê£Á£Ò£Ì ¤Î¥Û¡¼¥à¥Ú¡¼¥¸¤Ë±¿ÍÑͽÄ꤬µ­ºÜ¤µ¤ì¤Æ¤¤¤Þ¤·¤¿¤Î¤Ç¤´¾Ò²ð¤·¤Þ¤¹¡¥
       ¡Ê http://www.jarl.or.jp/Japanese/3_Fuji/new/uy.htm ¡Ë
       
¡¡¡¡¡¡¡¡¡¡¡¡¤Õ¤¸£³¹æ¡Ê£Ê£Á£Ó¡Ý£²¡Ë¤Î±¿ÍÑ 

¡¡¡¡¡¡¡¡¡¡¡¡¡¡¡¡¡ö¡ö¡ö¡¡±¿ÍÑͽÄê¤Ë¤Ä¤¤¤Æ¡¡¡ö¡ö¡ö

¡¡£±£°·î£±Æü¡Ê·î¡Ë¡¡¡Á¡¡£±£²·î£³Æü¡Ê·î¡Ë¥¢¥Ê¥í¥°·Ï±¿ÍÑ 

¡¡¡¡¡ö¤Ê¤ª¡¤±¿ÍÑͽÄê¤ÏÅÔ¹ç¤Ë¤è¤ê¡¤Êѹ¹¤¹¤ë¤³¤È¤¬¤¢¤ê¤Þ¤¹¤Î¤Ç¡¤¤¢¤é¤«¤¸¤á¤´Î»¾µ´ê¤¤¤Þ¤¹¡£

¡¡¾È²ñÀè¡¡¡§¡¡lab@jarl.or.jp

¡¡ºÇ¿·¤Î¾ðÊó¤Ï¥Æ¥ì¥Û¥ó¥µ¡¼¥Ó¥¹¡Ê£°£³¡Ý£³£¹£´£²¡Ý£±£°£°£°¡Ë¤ò¤ªÊ¹¤­¤¯¤À¤µ¤¤¡£¡¡¡¡
¡¡°Ê¸å¤Î±¿ÍѤˤĤ­¤Þ¤·¤Æ¤ÏÊ¿À®£±£³Ç¯£±£²·î¾å½Ü¤Ë¤ªÃΤ餻¤¤¤¿¤·¤Þ¤¹¡£ 
 ¡¡¡¡¡¡¡¡
-----------------------    £Æ£Ï¡Ý£²£°¡ÊJAS-£±£â¡ËÆ»Í×ÁÇ   -------------------------
 ¡¡£µ¡Ë
 ¡¡¢£ µ°Æ»Í×ÁÇ£± ¡§½Ðŵ¤Ï£Æ£Ï-£²£¹¡Ö¤Õ¤¸£³¹æ¡×¤ËƱ¤¸¡¥
  
FO-20
1 20480U 90013C   01318.63794997 -.00000011  00000-0  53006-4 0 03933
2 20480 099.0400 358.8191 0540570 328.5635 028.4177 12.83301392551390
 
 ¡¡¢£ µ°Æ»Í×ÁÇ£² ¡§½Ðŵ¤Ï£Æ£Ï¡Ý£²£¹¡Ö¤Õ¤¸£³¹æ¡×¤ËƱ¤¸¡¥
               
Satellite: FO-20
Catalog number: 20480
Epoch time:      01318.63794997
Element set:    0393
Inclination:      099.0400 deg
RA of node:       358.8191 deg
Eccentricity:    0.0540570
Arg of perigee:   328.5635 deg
Mean anomaly:     028.4177 deg
Mean motion:   12.83301392 rev/day
Decay rate:       -1.1e-07 rev/day^2
Epoch rev:           55139
Checksum:              306

¡¡--------------------------------------------------------------------------------
¡¡
¡¡        ¢£ ¤Õ¤¸£²¹æ¡¿£Æ£Ï¡Ý£²£°/JAS-1£â ¢£  ¡¡   
            
¡¡¡¡¡¡¡¡¡¡¡¡¡¡¡¡¡¡¡¡¡Ö¤Õ¤¸£²¹æ¡×¡¡¸½¶·                                                                                  
             
